2020/08/19 23:32:20+0000,-40.57,-42.38,-38.83,-48.37,-55.51,-56.17
2020/08/19 23:33:12+0000,-40.10,-41.86,-39.43,-47.60,-55.55,-55.61
2020/08/19 23:34:04+0000,-40.36,-43.74,-38.36,-48.31,-56.17,-56.16
2020/08/19 23:34:56+0000,-39.62,-42.24,-38.98,-46.37,-55.68,-56.14
2020/08/19 23:35:49+0000,-40.16,-42.44,-39.43,-48.08,-55.23,-55.80
2020/08/19 23:36:41+0000,-39.57,-42.81,-38.44,-63.37,-56.67,-56.04
2020/08/19 23:37:33+0000,-39.21,-42.40,-38.68,-47.71,-55.91,-55.80
2020/08/19 23:38:25+0000,-39.55,-41.84,-38.40,-62.95,-55.86,-56.52
2020/08/19 23:39:17+0000,-38.75,-43.16,-38.85,-48.04,-55.75,-55.64
2020/08/19 23:40:09+0000,-39.87,-42.70,-38.73,-63.54,-55.85,-56.17
2020/08/19 23:41:08+0000,-38.82,-42.89,-38.36,-63.08,-55.26,-56.05
2020/08/19 23:42:00+0000,-38.97,-43.90,-38.39,-47.11,-56.13,-56.02
2020/08/19 23:42:52+0000,-38.73,-42.97,-38.77,-47.42,-55.83,-55.75
2020/08/19 23:43:44+0000,-39.30,-42.53,-38.74,-47.45,-55.64,-56.85
2020/08/19 23:44:36+0000,-38.62,-42.10,-38.15,-62.96,-56.29,-55.81
2020/08/19 23:45:29+0000,-38.81,-42.79,-37.58,-47.74,-55.73,-56.28
2020/08/19 23:46:21+0000,-39.41,-42.50,-38.78,-47.72,-55.77,-56.64
2020/08/19 23:47:13+0000,-39.26,-43.06,-37.66,-48.44,-55.71,-56.18
2020/08/19 23:48:05+0000,-39.39,-42.15,-38.39,-47.99,-55.90,-56.74
2020/08/19 23:48:57+0000,-39.48,-43.62,-38.75,-47.84,-55.50,-56.90
2020/08/19 23:49:49+0000,-39.18,-43.36,-38.66,-48.14,-55.78,-56.88
2020/08/19 23:50:41+0000,-38.90,-42.09,-38.18,-47.46,-55.34,-55.52
2020/08/19 23:51:41+0000,-39.57,-42.72,-37.64,-64.65,-55.37,-56.11
2020/08/19 23:52:33+0000,-40.22,-42.64,-38.21,-47.68,-55.69,-56.27
2020/08/19 23:53:25+0000,-39.52,-43.19,-37.71,-64.45,-55.65,-56.44
2020/08/19 23:54:17+0000,-39.36,-43.30,-38.28,-48.16,-55.78,-55.67
2020/08/19 23:55:09+0000,-39.23,-42.69,-37.64,-47.57,-55.23,-56.24
2020/08/19 23:56:01+0000,-39.17,-43.39,-37.66,-61.17,-55.52,-56.49
2020/08/19 23:56:53+0000,-38.67,-43.01,-37.88,-48.14,-55.91,-55.93
2020/08/19 23:57:45+0000,-38.57,-41.82,-38.28,-62.68,-56.02,-3.55
2020/08/19 23:58:37+0000,-39.29,-43.17,-37.83,-47.73,-56.12,-56.20
2020/08/19 23:59:29+0000,-38.35,-42.37,-37.73,-65.25,-55.48,-56.53
2020/08/20 00:00:22+0000,-38.41,-42.32,-37.58,-48.04,-56.76,-56.08
2020/08/20 00:01:32+0000,-38.23,-42.91,-37.55,-38.75,-55.78,-55.96
2020/08/20 00:02:24+0000,-38.97,-41.87,-37.14,-47.86,-56.59,-56.42
2020/08/20 00:03:16+0000,-39.39,-42.39,-37.43,-47.66,-55.56,-56.17
2020/08/20 00:04:08+0000,-38.59,-42.19,-37.64,-48.47,-55.29,-56.47
2020/08/20 00:05:00+0000,-38.36,-43.54,-37.91,-47.54,-55.39,-56.15
2020/08/20 00:05:52+0000,-38.70,-44.07,-36.97,-47.46,-56.03,-56.03
2020/08/20 00:06:45+0000,-38.62,-43.91,-37.20,-47.98,-55.49,-56.47
2020/08/20 00:07:37+0000,-38.16,-43.34,-37.12,-48.34,-56.16,-57.12
2020/08/20 00:08:29+0000,-37.94,-42.92,-38.02,-46.62,-55.91,-56.34
2020/08/20 00:09:21+0000,-37.76,-42.29,-37.39,-47.49,-55.94,-56.16
2020/08/20 00:10:13+0000,-38.12,-42.36,-35.98,-47.25,-55.57,-55.80
2020/08/20 00:11:17+0000,-38.54,-42.34,-36.38,-48.01,-55.66,-56.02
2020/08/20 00:12:09+0000,-38.87,-43.34,-37.25,-48.10,-55.37,-56.31
2020/08/20 00:13:01+0000,-38.38,-42.78,-37.64,-47.15,-56.38,-55.96
2020/08/20 00:13:53+0000,-39.73,-42.60,-37.03,-46.87,-55.82,-56.03
2020/08/20 00:14:45+0000,-39.40,-43.57,-36.96,-47.44,-55.62,-55.90
2020/08/20 00:15:38+0000,-39.05,-42.57,-38.06,-47.17,-55.57,-56.19
2020/08/20 00:16:30+0000,-38.99,-42.13,-37.49,-47.66,-55.48,-56.16
2020/08/20 00:17:22+0000,-39.15,-43.28,-37.09,-47.26,-55.60,-56.02
2020/08/20 00:18:14+0000,-38.02,-42.74,-37.13,-47.19,-55.77,-55.71
2020/08/20 00:19:06+0000,-38.51,-43.49,-37.04,-47.67,-55.47,-56.21
2020/08/20 00:19:58+0000,-38.10,-42.16,-37.10,-63.94,-55.69,-56.36
2020/08/20 00:20:50+0000,-38.53,-42.48,-36.70,-47.46,-56.24,-55.71
2020/08/20 00:21:50+0000,-38.03,-42.70,-37.87,-47.64,-55.55,-55.72
2020/08/20 00:22:42+0000,-38.65,-43.36,-37.07,-46.99,-54.86,-56.21
2020/08/20 00:23:34+0000,-38.18,-42.71,-37.20,-47.14,-55.40,-56.16
2020/08/20 00:24:26+0000,-38.55,-42.88,-36.50,-47.16,-55.39,-55.93
2020/08/20 00:25:18+0000,-38.25,-42.38,-36.60,-64.40,-54.88,-55.83
2020/08/20 00:26:10+0000,-38.81,-42.99,-36.47,-47.59,-55.79,-56.17
2020/08/20 00:27:02+0000,-38.12,-43.03,-36.72,-62.94,-55.74,-55.88
2020/08/20 00:27:54+0000,-38.26,-42.46,-36.12,-47.36,-55.02,-56.11
2020/08/20 00:28:46+0000,-38.43,-42.79,-35.88,-47.94,-56.13,-56.07
2020/08/20 00:29:38+0000,-38.59,-42.85,-36.44,-47.82,-55.85,-55.92
2020/08/20 00:30:31+0000,-38.09,-42.52,-36.48,-47.30,-56.03,-55.67
2020/08/20 00:31:30+0000,-38.38,-45.51,-36.76,-47.59,-56.04,-56.07
2020/08/20 00:32:22+0000,-38.46,-45.31,-37.97,-67.71,-55.99,-56.72
2020/08/20 00:33:14+0000,-38.73,-44.98,-37.09,-47.33,-55.70,-56.61
2020/08/20 00:34:06+0000,-38.05,-44.86,-36.31,-47.91,-56.13,-56.75
2020/08/20 00:34:58+0000,-38.86,-44.92,-36.44,-48.82,-56.24,-55.80
2020/08/20 00:35:50+0000,-38.79,-45.17,-37.28,-48.13,-56.72,-56.28
2020/08/20 00:36:42+0000,-38.52,-44.40,-36.95,-47.66,-56.16,-56.51
2020/08/20 00:37:34+0000,-38.62,-44.85,-37.76,-47.39,-55.53,-56.47
2020/08/20 00:38:26+0000,-38.91,-44.63,-37.07,-44.59,-56.58,-56.51
2020/08/20 00:39:18+0000,-38.63,-45.30,-37.45,-48.00,-56.44,-56.57
2020/08/20 00:40:11+0000,-38.63,-45.30,-36.56,-63.92,-56.30,-56.36
2020/08/20 00:41:10+0000,-38.28,-45.18,-37.25,-64.11,-56.62,-56.65
2020/08/20 00:42:02+0000,-39.35,-45.12,-37.17,-47.67,-56.47,-57.39
2020/08/20 00:42:54+0000,-38.28,-44.48,-37.56,-63.46,-55.54,-55.76
2020/08/20 00:43:46+0000,-39.45,-45.57,-38.00,-47.01,-56.58,-56.30
2020/08/20 00:44:38+0000,-38.94,-45.34,-37.28,-64.70,-56.13,-56.17
2020/08/20 00:45:30+0000,-38.67,-44.70,-37.20,-47.95,-56.17,-56.45
2020/08/20 00:46:22+0000,-38.97,-45.59,-38.28,-63.57,-56.69,-56.16
2020/08/20 00:47:14+0000,-39.17,-45.10,-37.99,-47.69,-55.97,-56.73
2020/08/20 00:48:06+0000,-38.90,-45.40,-37.56,-47.77,-56.00,-56.30
2020/08/20 00:48:58+0000,-39.06,-45.42,-37.10,-47.35,-56.59,-56.96
2020/08/20 00:49:51+0000,-38.89,-44.90,-36.82,-48.01,-56.64,-56.54
2020/08/20 00:50:43+0000,-39.32,-44.93,-37.33,-47.26,-55.54,-56.58
2020/08/20 00:51:42+0000,-39.29,-45.50,-37.36,-47.74,-56.08,-56.60
2020/08/20 00:52:34+0000,-38.99,-45.01,-37.08,-47.32,-56.35,-56.35
2020/08/20 00:53:26+0000,-39.69,-45.12,-37.25,-48.03,-56.17,-56.44
2020/08/20 00:54:18+0000,-39.43,-45.37,-36.29,-47.41,-55.82,-56.45
2020/08/20 00:55:10+0000,-39.16,-45.65,-36.93,-47.99,-56.21,-56.26
2020/08/20 00:56:02+0000,-40.23,-44.95,-36.63,-47.84,-56.38,-56.27
2020/08/20 00:56:54+0000,-39.95,-45.03,-36.47,-47.20,-56.35,-56.34
2020/08/20 00:57:46+0000,-39.85,-45.55,-36.05,-46.91,-55.90,-56.57
2020/08/20 00:58:39+0000,-39.17,-45.82,-36.51,-47.29,-54.44,-56.61
2020/08/20 00:59:31+0000,-40.00,-46.00,-36.95,-48.13,-56.74,-56.79
2020/08/20 01:00:23+0000,-39.08,-46.06,-36.85,-47.94,-56.50,-56.47
2020/08/20 01:01:23+0000,-39.86,-45.66,-36.00,-48.73,-55.95,-57.07
2020/08/20 01:02:15+0000,-39.95,-45.75,-36.32,-48.39,-55.90,-56.45
2020/08/20 01:03:07+0000,-39.31,-45.73,-36.56,-48.95,-55.64,-56.75
2020/08/20 01:03:59+0000,-39.60,-45.19,-36.47,-48.25,-56.25,-57.55
2020/08/20 01:04:51+0000,-39.96,-45.51,-36.26,-48.19,-55.95,-56.01
2020/08/20 01:05:43+0000,-40.05,-45.65,-36.76,-48.53,-56.61,-56.72
2020/08/20 01:06:35+0000,-39.30,-45.80,-36.11,-48.43,-55.82,-56.95
2020/08/20 01:07:27+0000,-39.68,-44.98,-36.34,-49.04,-56.30,-56.64
2020/08/20 01:08:20+0000,-39.18,-45.57,-35.85,-48.68,-56.11,-56.76
2020/08/20 01:09:12+0000,-39.73,-44.97,-36.24,-48.34,-56.28,-56.95
2020/08/20 01:10:04+0000,-39.36,-44.14,-36.58,-49.24,-55.85,-57.11
2020/08/20 01:11:03+0000,-39.50,-45.24,-36.47,-48.33,-56.09,-56.18
2020/08/20 01:11:55+0000,-40.24,-45.78,-36.31,-48.79,-56.53,-56.35
2020/08/20 01:12:47+0000,-39.33,-46.01,-34.64,-48.28,-56.36,-56.36
2020/08/20 01:13:39+0000,-39.07,-45.70,-34.43,-48.16,-55.90,-56.91
2020/08/20 01:14:31+0000,-39.17,-45.90,-34.10,-47.86,-56.13,-56.63
2020/08/20 01:15:23+0000,-39.10,-45.81,-34.10,-47.35,-56.20,-56.62
2020/08/20 01:16:16+0000,-39.51,-45.76,-34.54,-46.95,-56.12,-57.04
2020/08/20 01:17:08+0000,-39.02,-45.84,-33.79,-48.10,-55.84,-56.80
2020/08/20 01:18:00+0000,-39.39,-45.51,-33.63,-48.30,-55.83,-57.06
2020/08/20 01:18:52+0000,-38.77,-46.06,-34.19,-48.03,-56.34,-56.44
2020/08/20 01:19:44+0000,-38.63,-45.75,-34.01,-48.12,-55.96,-57.15
2020/08/20 01:20:36+0000,-39.19,-46.02,-34.02,-48.87,-55.70,-57.35
2020/08/20 01:21:36+0000,-38.75,-45.89,-33.90,-48.23,-55.96,-56.49
2020/08/20 01:22:28+0000,-38.87,-45.29,-35.08,-47.86,-56.54,-56.72
2020/08/20 01:23:20+0000,-39.81,-46.16,-34.44,-47.66,-56.10,-56.65
2020/08/20 01:24:12+0000,-39.60,-45.77,-33.82,-48.77,-56.11,-56.95
2020/08/20 01:25:04+0000,-40.05,-45.98,-35.79,-48.42,-56.69,-57.35
2020/08/20 01:25:56+0000,-39.21,-45.61,-35.67,-49.39,-56.22,-56.35
2020/08/20 01:26:48+0000,-39.40,-42.96,-34.33,-48.38,-55.88,-56.95
2020/08/20 01:27:40+0000,-38.71,-42.95,-34.41,-48.42,-56.65,-56.55
2020/08/20 01:28:32+0000,-38.83,-42.60,-33.86,-48.49,-55.92,-56.35
2020/08/20 01:29:24+0000,-39.36,-42.19,-34.12,-48.70,-56.13,-56.72
2020/08/20 01:30:16+0000,-37.92,-42.86,-34.29,-49.28,-56.31,-56.08
2020/08/20 01:31:16+0000,-39.55,-42.65,-34.61,-48.32,-56.39,-56.20
2020/08/20 01:32:08+0000,-39.35,-43.24,-34.60,-48.44,-55.98,-56.49
2020/08/20 01:33:00+0000,-37.01,-42.16,-34.34,-48.16,-56.28,-56.39
2020/08/20 01:33:52+0000,-38.92,-43.17,-34.56,-48.24,-56.34,-56.63
2020/08/20 01:34:44+0000,-39.52,-42.29,-34.09,-47.97,-56.65,-56.31
2020/08/20 01:35:36+0000,-39.28,-43.33,-34.93,-48.41,-56.55,-56.84
2020/08/20 01:36:28+0000,-39.06,-42.73,-35.22,-48.24,-55.91,-56.42
2020/08/20 01:37:20+0000,-39.22,-43.57,-34.47,-48.24,-56.36,-56.41
2020/08/20 01:38:12+0000,-39.78,-42.50,-35.65,-47.80,-56.31,-56.00
2020/08/20 01:39:04+0000,-39.08,-42.63,-33.89,-48.54,-56.74,-55.70
2020/08/20 01:39:57+0000,-39.22,-42.63,-34.26,-48.64,-55.84,-56.02
2020/08/20 01:40:49+0000,-38.68,-43.71,-33.54,-48.77,-56.02,-56.07
2020/08/20 01:41:48+0000,-39.34,-42.46,-34.36,-49.50,-56.38,-56.27
2020/08/20 01:42:40+0000,-39.89,-43.25,-34.33,-48.52,-56.21,-56.94
2020/08/20 01:43:32+0000,-39.12,-42.52,-34.81,-49.15,-56.49,-56.84
2020/08/20 01:44:25+0000,-40.26,-42.03,-33.73,-49.48,-55.96,-56.79
2020/08/20 01:45:17+0000,-38.48,-41.42,-34.40,-47.89,-56.07,-57.06
2020/08/20 01:46:09+0000,-39.49,-41.05,-34.55,-49.84,-55.93,-56.80
2020/08/20 01:47:01+0000,-39.92,-43.87,-36.31,-51.29,-56.41,-56.60
2020/08/20 01:47:53+0000,-39.83,-42.62,-36.73,-49.90,-56.36,-56.36
2020/08/20 01:48:45+0000,-39.53,-42.62,-36.54,-50.88,-55.73,-56.30
2020/08/20 01:49:37+0000,-40.24,-42.90,-33.81,-50.79,-56.42,-56.57
2020/08/20 01:50:29+0000,-39.37,-42.07,-34.97,-49.80,-56.04,-57.15
2020/08/20 01:51:33+0000,-38.60,-42.33,-35.43,-49.70,-56.78,-56.86
2020/08/20 01:52:25+0000,-39.53,-42.45,-35.71,-50.36,-56.79,-56.54
2020/08/20 01:53:17+0000,-38.81,-42.20,-35.31,-50.82,-56.28,-56.66
2020/08/20 01:54:09+0000,-39.37,-42.88,-35.80,-51.22,-56.15,-56.66
2020/08/20 01:55:01+0000,-38.94,-43.18,-35.95,-50.82,-56.16,-56.51
2020/08/20 01:55:53+0000,-38.91,-42.77,-34.86,-50.50,-56.19,-56.54
2020/08/20 01:56:46+0000,-39.30,-44.10,-35.93,-50.79,-56.54,-56.66
2020/08/20 01:57:38+0000,-39.57,-45.81,-36.49,-49.88,-56.54,-57.12
2020/08/20 01:58:30+0000,-38.69,-45.86,-36.10,-51.04,-56.30,-56.42
2020/08/20 01:59:22+0000,-38.28,-45.56,-35.44,-50.85,-56.26,-56.72
2020/08/20 02:00:14+0000,-38.96,-45.39,-36.10,-50.22,-56.64,-56.79
2020/08/20 02:01:14+0000,-39.65,-45.59,-36.44,-50.91,-56.47,-56.57
2020/08/20 02:02:06+0000,-39.04,-46.69,-35.81,-50.90,-56.42,-56.57
2020/08/20 02:02:58+0000,-38.29,-46.45,-36.56,-51.88,-56.67,-56.65
2020/08/20 02:03:50+0000,-38.22,-46.47,-36.35,-51.05,-56.40,-56.61
2020/08/20 02:04:42+0000,-38.59,-45.90,-35.91,-50.74,-56.34,-57.04
2020/08/20 02:05:34+0000,-39.65,-46.67,-36.21,-51.09,-55.70,-56.32
2020/08/20 02:06:26+0000,-38.16,-45.49,-36.60,-51.69,-56.15,-56.55
2020/08/20 02:07:18+0000,-38.69,-45.79,-36.25,-50.67,-56.47,-56.72
2020/08/20 02:08:11+0000,-38.75,-42.61,-36.82,-50.38,-57.17,-56.80
2020/08/20 02:09:03+0000,-37.47,-42.08,-35.03,-49.56,-56.70,-57.17
2020/08/20 02:09:55+0000,-39.00,-43.46,-36.81,-50.30,-56.47,-57.16
2020/08/20 02:10:47+0000,-39.10,-44.33,-36.54,-50.80,-56.33,-55.83
2020/08/20 02:11:46+0000,-39.23,-42.99,-36.00,-50.64,-56.14,-56.96
2020/08/20 02:12:38+0000,-39.05,-43.03,-35.89,-50.26,-56.22,-56.96
2020/08/20 02:13:30+0000,-38.64,-42.79,-36.69,-50.40,-56.06,-57.36
2020/08/20 02:14:22+0000,-38.10,-42.75,-34.56,-48.98,-56.66,-56.97
2020/08/20 02:15:14+0000,-38.42,-42.84,-35.57,-49.47,-56.31,-56.77
2020/08/20 02:16:06+0000,-38.37,-42.44,-33.88,-49.05,-56.32,-58.69
2020/08/20 02:16:58+0000,-38.39,-43.09,-37.01,-50.07,-56.81,-58.65
2020/08/20 02:17:50+0000,-38.46,-42.65,-33.93,-49.92,-56.96,-57.92
2020/08/20 02:18:42+0000,-37.49,-42.99,-33.81,-49.68,-56.36,-58.49
2020/08/20 02:19:34+0000,-38.05,-42.26,-34.71,-50.01,-57.01,-58.64
2020/08/20 02:20:27+0000,-39.05,-42.45,-36.84,-51.43,-56.46,-57.73
2020/08/20 02:21:26+0000,-38.51,-43.08,-35.12,-49.70,-56.97,-57.84
2020/08/20 02:22:18+0000,-38.25,-43.05,-34.58,-51.97,-56.77,-58.35
2020/08/20 02:23:10+0000,-38.94,-42.72,-36.46,-50.76,-56.58,-57.95
2020/08/20 02:24:02+0000,-37.90,-43.02,-35.69,-50.85,-56.86,-57.91
2020/08/20 02:24:54+0000,-38.13,-44.18,-35.23,-50.82,-56.89,-57.97
2020/08/20 02:25:46+0000,-37.66,-43.59,-33.91,-49.40,-55.95,-57.75
2020/08/20 02:26:38+0000,-37.37,-43.11,-33.91,-51.29,-56.45,-58.02
2020/08/20 02:27:31+0000,-38.64,-42.86,-34.87,-49.52,-56.09,-57.97
2020/08/20 02:28:23+0000,-38.24,-42.72,-34.31,-49.74,-56.54,-58.19
2020/08/20 02:29:15+0000,-38.67,-42.59,-34.06,-49.00,-56.77,-58.44
2020/08/20 02:30:07+0000,-37.59,-43.18,-35.16,-49.85,-56.59,-57.86
2020/08/20 02:31:07+0000,-37.56,-44.11,-34.10,-50.61,-56.83,-58.93
2020/08/20 02:31:59+0000,-38.06,-43.00,-34.38,-50.98,-56.63,-58.23
2020/08/20 02:32:51+0000,-38.68,-42.60,-34.21,-49.51,-57.09,-57.98
2020/08/20 02:33:43+0000,-38.13,-44.90,-35.27,-49.57,-56.51,-58.36
2020/08/20 02:34:35+0000,-38.97,-43.21,-34.37,-50.00,-56.74,-57.63
2020/08/20 02:35:27+0000,-37.33,-42.63,-34.61,-48.57,-57.53,-58.01
2020/08/20 02:36:19+0000,-39.07,-42.65,-34.51,-50.32,-56.95,-58.80
2020/08/20 02:37:11+0000,-37.65,-44.34,-35.70,-49.86,-56.52,-58.33
2020/08/20 02:38:03+0000,-38.82,-42.90,-36.07,-48.32,-57.20,-57.85
2020/08/20 02:38:55+0000,-37.89,-43.24,-35.31,-49.70,-57.11,-58.05
2020/08/20 02:39:48+0000,-38.97,-44.06,-34.73,-49.99,-57.29,-58.46
2020/08/20 02:40:40+0000,-38.62,-43.68,-34.72,-47.66,-56.99,-58.39
2020/08/20 02:41:39+0000,-39.03,-43.17,-34.76,-49.05,-57.49,-58.08
2020/08/20 02:42:31+0000,-39.58,-43.50,-36.69,-48.99,-56.78,-57.59
2020/08/20 02:43:23+0000,-38.48,-43.11,-36.24,-47.86,-57.46,-57.87
2020/08/20 02:44:15+0000,-39.93,-43.08,-35.78,-48.97,-56.74,-58.29
2020/08/20 02:45:07+0000,-39.15,-43.40,-34.94,-49.09,-57.16,-57.81
2020/08/20 02:45:59+0000,-38.76,-41.75,-34.67,-46.62,-56.36,-58.34
2020/08/20 02:46:52+0000,-38.00,-43.26,-35.79,-49.86,-56.27,-58.34
2020/08/20 02:47:44+0000,-39.29,-44.53,-34.72,-49.80,-57.04,-58.55
2020/08/20 02:48:36+0000,-38.28,-42.85,-37.47,-51.26,-57.06,-59.25
2020/08/20 02:49:28+0000,-38.89,-42.41,-38.26,-50.99,-56.29,-55.50
2020/08/20 02:50:20+0000,-38.83,-43.27,-34.66,-50.63,-56.29,-55.94
2020/08/20 02:51:19+0000,-39.63,-42.61,-37.35,-52.34,-55.88,-56.00
2020/08/20 02:52:11+0000,-38.43,-42.75,-37.43,-49.84,-56.26,-56.34
2020/08/20 02:53:03+0000,-39.29,-41.84,-37.53,-48.66,-56.11,-55.42
2020/08/20 02:53:55+0000,-39.45,-43.21,-36.43,-48.77,-56.10,-55.39
2020/08/20 02:54:47+0000,-38.95,-41.51,-37.27,-50.90,-55.96,-56.13
2020/08/20 02:55:39+0000,-39.85,-42.55,-37.14,-48.79,-55.87,-56.28
2020/08/20 02:56:31+0000,-38.77,-43.06,-36.44,-49.48,-56.15,-56.01
2020/08/20 02:57:24+0000,-39.52,-43.55,-35.14,-49.86,-56.57,-56.49
2020/08/20 02:58:16+0000,-38.74,-42.52,-35.40,-49.96,-55.70,-55.96
2020/08/20 02:59:08+0000,-38.39,-43.93,-36.98,-51.28,-56.12,-56.21
2020/08/20 03:00:00+0000,-37.89,-43.15,-37.25,-50.10,-55.73,-56.21
2020/08/20 03:01:00+0000,-39.43,-42.51,-37.07,-50.38,-55.62,-56.54
2020/08/20 03:01:52+0000,-38.79,-42.82,-35.17,-50.03,-56.76,-55.68
2020/08/20 03:02:44+0000,-39.85,-40.88,-35.25,-50.35,-56.46,-56.27
2020/08/20 03:03:36+0000,-38.99,-44.98,-36.68,-50.59,-55.89,-55.80
2020/08/20 03:04:28+0000,-38.31,-42.68,-37.04,-49.04,-56.28,-56.49
2020/08/20 03:05:21+0000,-38.77,-44.07,-34.92,-50.16,-55.40,-55.80
2020/08/20 03:06:13+0000,-38.80,-40.58,-35.96,-50.04,-55.89,-55.85
2020/08/20 03:07:05+0000,-38.04,-44.36,-35.79,-51.10,-55.67,-55.63
2020/08/20 03:07:57+0000,-38.38,-43.73,-34.87,-48.10,-56.13,-55.33
2020/08/20 03:08:49+0000,-38.46,-39.96,-36.63,-50.29,-56.14,-56.27
2020/08/20 03:09:41+0000,-38.96,-40.57,-36.06,-50.48,-56.12,-55.93
2020/08/20 03:10:33+0000,-38.57,-42.44,-35.92,-50.14,-55.37,-55.80
2020/08/20 03:11:32+0000,-39.02,-42.46,-35.61,-48.01,-55.32,-55.68
2020/08/20 03:12:24+0000,-39.03,-40.40,-35.70,-50.38,-56.31,-55.88
2020/08/20 03:13:16+0000,-39.66,-43.24,-36.46,-49.69,-55.70,-56.29
2020/08/20 03:14:08+0000,-37.83,-41.83,-35.34,-49.33,-55.25,-55.79
2020/08/20 03:15:00+0000,-38.60,-41.57,-36.34,-49.24,-56.41,-56.01
2020/08/20 03:15:53+0000,-38.50,-41.52,-34.71,-48.40,-55.94,-55.55
2020/08/20 03:16:45+0000,-38.44,-43.05,-34.47,-50.36,-55.76,-55.88
2020/08/20 03:17:37+0000,-38.86,-45.52,-35.64,-50.56,-55.67,-56.04
2020/08/20 03:18:29+0000,-38.89,-43.02,-35.40,-51.32,-55.62,-56.25
2020/08/20 03:19:21+0000,-38.37,-47.65,-34.60,-51.41,-55.56,-56.69
2020/08/20 03:20:13+0000,-38.36,-45.79,-36.60,-51.25,-56.12,-56.69
2020/08/20 03:21:12+0000,-38.88,-45.62,-36.54,-49.70,-55.44,-56.32
2020/08/20 03:22:04+0000,-39.14,-44.43,-36.39,-51.07,-56.10,-55.74
2020/08/20 03:22:56+0000,-39.31,-44.03,-36.17,-51.71,-55.51,-55.73
2020/08/20 03:23:48+0000,-39.20,-44.92,-35.70,-51.65,-56.29,-55.97
2020/08/20 03:24:41+0000,-39.00,-45.48,-35.82,-49.02,-56.20,-55.81
2020/08/20 03:25:33+0000,-38.39,-43.79,-35.60,-51.09,-56.13,-56.24
2020/08/20 03:26:25+0000,-39.06,-41.27,-34.84,-51.66,-56.10,-56.35
2020/08/20 03:27:17+0000,-38.82,-44.94,-36.32,-52.12,-55.75,-56.52
2020/08/20 03:28:09+0000,-38.68,-45.45,-36.18,-51.33,-55.55,-55.93
2020/08/20 03:29:01+0000,-38.87,-43.16,-35.06,-50.64,-56.18,-56.13
2020/08/20 03:29:53+0000,-38.48,-43.07,-34.38,-50.77,-56.12,-56.42
2020/08/20 03:30:45+0000,-39.11,-45.01,-35.49,-51.94,-55.50,-56.60
2020/08/20 03:31:44+0000,-39.41,-44.54,-35.47,-50.27,-55.38,-56.85
2020/08/20 03:32:36+0000,-38.18,-45.28,-36.32,-49.48,-55.54,-56.31
2020/08/20 03:33:28+0000,-38.04,-45.03,-36.11,-49.65,-55.80,-55.89
2020/08/20 03:34:21+0000,-38.54,-44.86,-34.03,-50.75,-55.83,-56.14
2020/08/20 03:35:13+0000,-38.23,-45.99,-35.72,-50.54,-55.98,-56.09
2020/08/20 03:36:05+0000,-38.13,-44.79,-34.50,-50.61,-55.75,-55.80
2020/08/20 03:36:57+0000,-37.96,-43.87,-35.73,-50.24,-55.78,-56.33
2020/08/20 03:37:49+0000,-38.11,-44.77,-34.54,-51.33,-56.57,-56.32
2020/08/20 03:38:41+0000,-37.96,-45.07,-34.66,-49.62,-55.86,-56.53
2020/08/20 03:39:33+0000,-38.51,-44.49,-36.84,-49.57,-56.33,-56.21
2020/08/20 03:40:25+0000,-38.57,-44.77,-34.24,-47.97,-56.08,-56.46
2020/08/20 03:41:26+0000,-38.79,-45.78,-34.05,-47.14,-55.81,-55.98
2020/08/20 03:42:18+0000,-38.38,-46.57,-35.23,-51.75,-55.63,-56.03
2020/08/20 03:43:10+0000,-38.37,-46.24,-35.87,-50.92,-56.09,-56.78
2020/08/20 03:44:02+0000,-38.58,-45.93,-35.87,-51.38,-55.26,-55.98
2020/08/20 03:44:54+0000,-37.78,-45.86,-36.49,-49.58,-55.42,-56.21
2020/08/20 03:45:47+0000,-37.50,-45.89,-34.94,-49.67,-55.66,-56.41
2020/08/20 03:46:39+0000,-37.32,-45.10,-34.68,-49.61,-55.61,-56.23
2020/08/20 03:47:31+0000,-37.31,-45.32,-34.72,-50.17,-55.78,-56.52
2020/08/20 03:48:23+0000,-37.33,-46.71,-36.18,-50.43,-55.77,-55.86
2020/08/20 03:49:15+0000,-37.23,-45.56,-34.94,-49.20,-55.10,-56.58
2020/08/20 03:50:07+0000,-37.83,-47.72,-35.00,-49.88,-55.83,-56.41
2020/08/20 03:51:06+0000,-35.70,-45.98,-35.30,-48.32,-56.31,-56.35
2020/08/20 03:51:58+0000,-36.13,-44.94,-34.94,-50.44,-55.97,-56.27
2020/08/20 03:52:50+0000,-36.62,-44.14,-33.64,-48.90,-55.49,-56.44
2020/08/20 03:53:42+0000,-34.94,-40.57,-34.80,-48.76,-56.05,-55.95
2020/08/20 03:54:34+0000,-36.43,-42.19,-35.16,-49.30,-55.78,-55.74
2020/08/20 03:55:27+0000,-36.48,-41.83,-33.55,-48.58,-55.61,-56.04
2020/08/20 03:56:19+0000,-36.66,-41.84,-35.34,-47.75,-55.93,-56.36
2020/08/20 03:57:11+0000,-33.73,-40.93,-33.79,-49.07,-56.01,-56.34
2020/08/20 03:58:03+0000,-32.93,-44.01,-34.67,-49.18,-55.61,-56.40
2020/08/20 03:58:55+0000,-38.27,-43.50,-34.28,-48.87,-56.09,-56.10
2020/08/20 03:59:47+0000,-37.87,-41.91,-35.36,-50.39,-56.05,-56.32
2020/08/20 04:00:39+0000,-37.52,-42.74,-36.15,-48.88,-55.57,-56.62
2020/08/20 04:01:38+0000,-33.09,-41.47,-34.42,-49.42,-55.06,-56.01
2020/08/20 04:02:30+0000,-37.19,-43.00,-34.94,-50.14,-55.01,-56.11
2020/08/20 04:03:22+0000,-31.93,-43.33,-34.03,-49.03,-56.11,-56.58
2020/08/20 04:04:14+0000,-37.69,-41.79,-33.78,-51.35,-55.42,-55.66
2020/08/20 04:05:06+0000,-37.50,-43.06,-36.07,-49.67,-55.79,-55.66
2020/08/20 04:05:58+0000,-29.93,-43.18,-33.87,-48.75,-55.45,-55.73
2020/08/20 04:06:51+0000,-31.85,-44.61,-34.35,-47.99,-55.74,-55.88
2020/08/20 04:07:43+0000,-37.05,-39.97,-34.10,-48.07,-55.39,-56.01
2020/08/20 04:08:35+0000,-36.23,-43.09,-34.71,-48.38,-55.29,-56.32
2020/08/20 04:09:27+0000,-37.26,-42.03,-34.09,-49.33,-55.41,-55.96
2020/08/20 04:10:19+0000,-37.79,-40.74,-34.06,-48.72,-55.59,-55.68
2020/08/20 04:11:17+0000,-36.59,-42.18,-34.21,-47.38,-55.56,-55.95
2020/08/20 04:12:09+0000,-32.41,-42.33,-34.07,-49.25,-55.84,-56.19
2020/08/20 04:13:01+0000,-36.17,-42.92,-35.57,-50.71,-56.05,-55.15
2020/08/20 04:13:53+0000,-36.81,-42.84,-34.34,-49.20,-55.61,-55.91
2020/08/20 04:14:45+0000,-36.80,-39.19,-34.63,-48.99,-55.84,-56.10
2020/08/20 04:15:37+0000,-37.33,-41.20,-34.30,-49.03,-55.95,-55.91
2020/08/20 04:16:30+0000,-37.71,-42.07,-34.28,-49.30,-55.21,-55.74
2020/08/20 04:17:22+0000,-37.50,-42.96,-34.37,-49.95,-56.31,-55.83
2020/08/20 04:18:14+0000,-38.17,-41.54,-35.23,-48.48,-56.07,-55.94
2020/08/20 04:19:06+0000,-37.41,-44.59,-34.24,-51.07,-55.47,-56.12
2020/08/20 04:19:58+0000,-37.70,-43.29,-34.71,-48.96,-55.74,-56.02
2020/08/20 04:20:50+0000,-37.52,-46.66,-34.01,-49.67,-56.10,-56.35
2020/08/20 04:21:49+0000,-37.80,-45.03,-36.27,-51.93,-55.97,-56.78
2020/08/20 04:22:41+0000,-37.90,-45.89,-35.61,-51.53,-55.80,-56.55
2020/08/20 04:23:33+0000,-38.23,-42.62,-35.48,-50.55,-55.73,-56.15
2020/08/20 04:24:25+0000,-38.56,-43.07,-35.38,-50.77,-55.52,-56.74
2020/08/20 04:25:17+0000,-37.91,-43.60,-35.76,-51.12,-55.94,-56.77
2020/08/20 04:26:09+0000,-37.84,-45.02,-35.26,-50.52,-55.89,-55.75
2020/08/20 04:27:02+0000,-37.90,-42.60,-35.71,-51.03,-56.11,-55.95
2020/08/20 04:27:54+0000,-38.09,-44.23,-34.96,-50.99,-56.54,-56.74
2020/08/20 04:28:46+0000,-38.37,-43.92,-34.77,-48.92,-56.36,-56.50
2020/08/20 04:29:38+0000,-38.59,-45.12,-35.15,-50.11,-55.84,-56.55
2020/08/20 04:30:30+0000,-38.80,-42.88,-34.35,-49.57,-55.38,-56.35
2020/08/20 04:31:30+0000,-37.49,-44.37,-34.09,-49.58,-55.49,-55.98
2020/08/20 04:32:22+0000,-37.26,-43.94,-34.47,-50.74,-55.07,-56.02
2020/08/20 04:33:14+0000,-38.42,-43.86,-34.71,-49.54,-55.81,-55.89
2020/08/20 04:34:06+0000,-39.57,-47.79,-34.76,-51.07,-55.97,-55.96
2020/08/20 04:34:58+0000,-33.71,-46.64,-34.45,-52.03,-55.84,-55.92
2020/08/20 04:35:50+0000,-32.89,-45.93,-35.49,-52.19,-55.54,-55.83
2020/08/20 04:36:42+0000,-38.45,-45.37,-35.26,-51.59,-55.16,-56.06
2020/08/20 04:37:34+0000,-38.50,-47.18,-34.41,-51.60,-55.84,-55.74
2020/08/20 04:38:26+0000,-35.26,-46.49,-34.96,-49.74,-55.87,-56.00
2020/08/20 04:39:18+0000,-31.68,-44.56,-35.50,-49.72,-56.07,-55.83
2020/08/20 04:40:10+0000,-37.38,-45.12,-34.25,-50.04,-56.23,-56.04
2020/08/20 04:41:09+0000,-38.53,-44.14,-36.82,-49.81,-56.30,-55.86
2020/08/20 04:42:01+0000,-38.88,-45.63,-33.71,-50.11,-55.71,-56.32
2020/08/20 04:42:54+0000,-31.71,-45.89,-34.18,-50.42,-55.58,-55.47
2020/08/20 04:43:46+0000,-39.28,-42.94,-33.51,-49.09,-55.61,-55.17
2020/08/20 04:44:38+0000,-38.24,-47.26,-34.13,-49.99,-55.42,-55.68
2020/08/20 04:45:30+0000,-33.66,-45.38,-34.19,-51.08,-55.40,-55.43
2020/08/20 04:46:22+0000,-38.85,-47.70,-33.32,-49.79,-55.41,-56.29